Regional Weather Roundup
Issued by NWS Bismarck, ND

Home | Current Version | Previous Version | Text Only | Print | Product List | Glossary On
Versions: 1 2 3 4 5 6 7 8 9 10 11 12 13 14 15 16 17 18 19 20 21 22 23 24 25 26 27 28 29 30 31 32 33 34 35 36 37 38 39 40 41 42 43 44 45 46 47 48 49 50
000
ASUS43 KBIS 280410
RWRBIS

NWR BROADCAST TEXT
NATIONAL WEATHER SERVICE BISMARCK ND
1000 PM CST TUE JAN 27 2015

NOTE: "FAIR" INDICATES FEW OR NO CLOUDS BELOW 12,000 FEET WITH NO
SIGNIFICANT WEATHER AND/OR OBSTRUCTIONS TO VISIBILITY.


CITY           SKY/WX    TMP DP  RH WIND       PRES   REMARKS
WILLISTON      CLOUDY    32  30  92 SW3       29.77S
MINOT          CLOUDY    34  30  85 NW3       29.77S
MINOT AFB      CLOUDY    31  31 100 N3        29.77S
BISMARCK       MOCLDY    33  31  92 E5        29.79F
DICKINSON      CLOUDY    37  31  78 S6        29.77S
GARRISON         N/A     34  32  92 N3        29.77R
HETTINGER ARPT CLOUDY    32  28  85 N3        29.80F
JAMESTOWN      CLOUDY    32  31  96 S12       29.82S
BEACH          FAIR      36  32  87 S5        29.80F
CROSBY         FAIR      30  30 100 SW5       29.77S
HARVEY         FAIR      32  32 100 SE3       29.78S
HAZEN          MOCLDY    28  28 100 CALM      29.79R
LINTON         FAIR      36  36 100 SE8       29.80S
MANDAN         FAIR      41  36  81 SW3       29.79S
OAKES            N/A     32  32 100 SE9       29.88S
RUGBY          FAIR      28  28 100 E5        29.78S
TIOGA          FAIR      28  28 100 E3        29.79S
WATFORD CITY   FAIR      34  32  93 SW3       29.76S
$$

CITY           SKY/WX    TMP DP  RH WIND       PRES   REMARKS
GRAND FORKS    CLOUDY    32  30  92 S15G26    29.91F
GRAND FORKS AF CLOUDY    31  30  94 S18       29.90F WCI  19
DEVILS LAKE    CLOUDY    34  32  93 SE14      29.81S VSB 3/4
FARGO          CLOUDY    34  31  88 SE17G26   29.93F
CANDO          FOG       32  32 100 SE9       29.80F VSB 1/4
CAVALIER       CLOUDY    32  32 100 S13       29.89F FOG
GWINNER        CLOUDY    34  34 100 CALM      29.90F
LANGDON        FOG       32  32 100 SE14      29.82F VSB 1/4
ROLLA          FOG       30  30 100 SE7       29.79F VSB<1/4
WALHALLA         N/A     32  32 100 SE12      29.88F FOG
$$

CITY           SKY/WX    TMP DP  RH WIND       PRES   REMARKS
ABERDEEN       CLEAR     35  32  88 S13       29.87F
MOBRIDGE       PTCLDY    37  33  85 SE9       29.79S
BUFFALO          N/A     49  31  49 W6        29.75F
RAPID CITY     MOCLDY    50  27  40 SW6       29.82F
GLASGOW        PTCLDY    35  31  85 CALM      29.76F
SIDNEY         MOCLDY    34  30  86 CALM      29.80S
WOLF POINT     PTCLDY    32  30  92 CALM      29.78S
GLENDIVE       MOCLDY    37  30  75 W5        29.79F
MILES CITY     CLEAR     40  32  73 NW6       29.79F
BAKER          MOCLDY    38  31  76 CALM      29.80F
$$

CITY           SKY/WX    TMP DP  RH WIND       PRES   REMARKS
BILLINGS       CLOUDY    48  28  46 W14       29.86F
GREAT FALLS    CLOUDY    46  29  51 SW10      29.87R
REGINA         CLEAR     30  27  86 E7        29.79S
ESTEVAN        CLOUDY    28  27  93 E6        29.77S
$$




USA.gov is the U.S. government's official web portal to all federal, state and local government web resources and services.